Location: Newark
(48.1500°N, 2.9667°W)
Time: 21:27:09
(UTC+00:00)

Transit 2A - Pass Details

Date: 25 January 2020
Orbit: 600 x 959 km, 66.7° (Epoch: 19 February)

Event Time Altitude Azimuth Distance (km) Brightness Sun altitude
Rises 06:31:48 0° 306° (NW) 3,028 - -12.8°
Reaches altitude 10° 06:35:35 10° 275° (W) 2,188 - -12.2°
Exits shadow 06:37:18 12° 254° (WSW) 2,101 7.8 -11.9°
Maximum altitude 06:37:20 12° 254° (WSW) 2,101 7.8 -11.9°
Drops below altitude 10° 06:39:08 10° 233° (SW) 2,264 8.1 -11.7°
Sets 06:43:15 0° 203° (SSW) 3,282 9.2 -11.0°
